| time (UTC) | temp F | wind direction | speed knots | gust knots | rain 1hr in | rain 24hr in | rain mn in | humidity % | barometer mb |
| 20260505052004 | 44 | 298 | 0.9 | 3.5 | 0.00 | 0.23 | 0.02 | 98 | 1010.2 |
| 20260505051503 | 44 | 306 | 0.0 | 2.6 | 0.00 | 0.23 | 0.02 | 98 | 1010.1 |
| 20260505051004 | 44 | 305 | 0.0 | 0.9 | 0.00 | 0.23 | 0.02 | 98 | 1010.2 |
| 20260505050503 | 44 | 305 | 0.9 | 2.6 | 0.00 | 0.23 | 0.02 | 98 | 1010.1 |
| 20260505041504 | 44 | 295 | 1.7 | 3.5 | 0.01 | 0.23 | 0.02 | 98 | 1009.8 |
| 20260505041004 | 44 | 294 | 1.7 | 3.5 | 0.01 | 0.23 | 0.02 | 98 | 1009.8 |
| 20260505040504 | 44 | 290 | 1.7 | 3.5 | 0.01 | 0.23 | 0.02 | 98 | 1009.9 |
| 20260505040005 | 44 | 286 | 2.6 | 3.5 | 0.01 | 0.23 | 0.02 | 98 | 1009.9 |
| 20260505035503 | 45 | 285 | 1.7 | 3.5 | 0.00 | 0.22 | 0.01 | 98 | 1009.9 |
| 20260505035004 | 45 | 284 | 0.9 | 3.5 | 0.00 | 0.22 | 0.01 | 98 | 1009.9 |
| 20260505034503 | 45 | 0 | 0.0 | 0.0 | 0.00 | 0.22 | 0.01 | 98 | 1009.9 |
| 20260505034004 | 45 | 283 | 0.0 | 1.7 | 0.00 | 0.22 | 0.01 | 98 | 1009.9 |
| 20260505033503 | 45 | 283 | 0.9 | 2.6 | 0.00 | 0.22 | 0.01 | 98 | 1010.0 |
| 20260505033004 | 45 | 288 | 0.9 | 2.6 | 0.00 | 0.22 | 0.01 | 98 | 1009.9 |
| 20260505032503 | 45 | 292 | 1.7 | 5.2 | 0.00 | 0.22 | 0.01 | 98 | 1009.8 |
| 20260505032004 | 46 | 296 | 1.7 | 5.2 | 0.00 | 0.22 | 0.01 | 98 | 1009.9 |
| 20260505031503 | 45 | 302 | 2.6 | 3.5 | 0.00 | 0.22 | 0.01 | 98 | 1009.9 |
| 20260505031004 | 45 | 302 | 2.6 | 6.1 | 0.00 | 0.22 | 0.01 | 98 | 1010.0 |
| 20260505030504 | 46 | 301 | 2.6 | 6.1 | 0.00 | 0.22 | 0.01 | 98 | 1010.1 |
| 20260505030004 | 46 | 300 | 2.6 | 3.5 | 0.00 | 0.22 | 0.01 | 98 | 1010.0 |
| 20260505025503 | 45 | 290 | 2.6 | 3.5 | 0.00 | 0.22 | 0.01 | 98 | 1010.0 |
| 20260505025004 | 45 | 289 | 1.7 | 4.3 | 0.00 | 0.22 | 0.01 | 97 | 1010.1 |
| 20260505024504 | 45 | 294 | 1.7 | 4.3 | 0.00 | 0.22 | 0.01 | 98 | 1010.1 |
| 20260505024003 | 46 | 296 | 1.7 | 4.3 | 0.00 | 0.22 | 0.01 | 98 | 1010.1 |
| 20260505023503 | 46 | 296 | 2.6 | 3.5 | 0.00 | 0.22 | 0.01 | 98 | 1010.2 |
| 20260505023004 | 46 | 292 | 1.7 | 3.5 | 0.00 | 0.22 | 0.01 | 98 | 1010.1 |
| 20260505022503 | 46 | 289 | 1.7 | 3.5 | 0.00 | 0.22 | 0.01 | 98 | 1010.1 |
| 20260505022003 | 46 | 291 | 0.9 | 3.5 | 0.00 | 0.22 | 0.01 | 98 | 1010.1 |
| 20260505021503 | 46 | 294 | 0.9 | 3.5 | 0.00 | 0.22 | 0.01 | 98 | 1010.0 |
| 20260505021003 | 46 | 293 | 0.9 | 3.5 | 0.00 | 0.22 | 0.01 | 97 | 1010.1 |
| 20260505020503 | 46 | 284 | 1.7 | 3.5 | 0.00 | 0.22 | 0.01 | 97 | 1010.0 |
| 20260505020004 | 46 | 284 | 0.9 | 3.5 | 0.00 | 0.22 | 0.01 | 97 | 1010.0 |
| 20260505015503 | 47 | 294 | 0.9 | 3.5 | 0.00 | 0.22 | 0.01 | 97 | 1010.1 |
| 20260505015004 | 46 | 292 | 0.9 | 2.6 | 0.01 | 0.22 | 0.01 | 98 | 1010.0 |
| 20260505014503 | 46 | 284 | 1.7 | 3.5 | 0.01 | 0.22 | 0.01 | 97 | 1010.1 |
| 20260505014003 | 46 | 290 | 1.7 | 3.5 | 0.01 | 0.22 | 0.01 | 97 | 1010.1 |
| 20260505013503 | 47 | 298 | 0.9 | 2.6 | 0.01 | 0.22 | 0.01 | 97 | 1010.1 |
| 20260505013004 | 47 | 298 | 1.7 | 3.5 | 0.01 | 0.22 | 0.01 | 97 | 1010.1 |
| 20260505012503 | 47 | 293 | 1.7 | 3.5 | 0.01 | 0.22 | 0.01 | 97 | 1010.0 |
| 20260505012214 | 47 | 288 | 1.7 | 3.5 | 0.01 | 0.22 | 0.01 | 97 | 1010.1 |
| 20260505011713 | 47 | 281 | 1.7 | 2.6 | 0.01 | 0.22 | 0.01 | 97 | 1010.0 |
| 20260505011214 | 47 | 279 | 1.7 | 2.6 | 0.01 | 0.22 | 0.01 | 97 | 1010.1 |
| 20260505010503 | 47 | 279 | 0.9 | 2.6 | 0.01 | 0.22 | 0.01 | 97 | 1010.1 |
| 20260505010004 | 48 | 279 | 0.9 | 1.7 | 0.01 | 0.22 | 0.01 | 97 | 1010.2 |
| 20260505005503 | 48 | 279 | 0.9 | 1.7 | 0.01 | 0.22 | 0.01 | 97 | 1010.2 |
| 20260505005004 | 48 | 279 | 0.9 | 1.7 | 0.00 | 0.21 | 0.00 | 97 | 1010.2 |
| 20260505004503 | 48 | 279 | 0.9 | 2.6 | 0.00 | 0.21 | 0.00 | 97 | 1010.3 |
| 20260505004003 | 48 | 280 | 1.7 | 3.5 | 0.00 | 0.21 | 0.00 | 97 | 1010.3 |
| 20260505003503 | 48 | 292 | 1.7 | 4.3 | 0.00 | 0.21 | 0.00 | 97 | 1010.3 |
| 20260505003004 | 48 | 300 | 1.7 | 4.3 | 0.00 | 0.21 | 0.00 | 97 | 1010.3 |
| 20260505002503 | 48 | 292 | 1.7 | 3.5 | 0.00 | 0.21 | 0.00 | 97 | 1010.4 |
| 20260505002004 | 48 | 287 | 2.6 | 3.5 | 0.00 | 0.21 | 0.00 | 97 | 1010.3 |
| 20260505001504 | 48 | 290 | 2.6 | 3.5 | 0.00 | 0.21 | 0.00 | 97 | 1010.3 |
| 20260505001003 | 49 | 293 | 1.7 | 3.5 | 0.00 | 0.21 | 0.00 | 97 | 1010.3 |
| 20260505000503 | 49 | 292 | 0.9 | 2.6 | 0.00 | 0.21 | 0.00 | 97 | 1010.3 |
| 20260505000214 | 49 | 292 | 0.9 | 2.6 | 0.00 | 0.21 | 0.00 | 97 | 1010.4 |
| 20260504235503 | 49 | 292 | 0.9 | 2.6 | 0.00 | 0.21 | 0.00 | 97 | 1010.3 |
| 20260504235214 | 49 | 292 | 0.9 | 2.6 | 0.00 | 0.21 | 0.00 | 97 | 1010.3 |
| 20260504234503 | 49 | 291 | 1.7 | 3.5 | 0.00 | 0.21 | 0.00 | 96 | 1010.4 |
| 20260504234003 | 49 | 289 | 0.9 | 3.5 | 0.00 | 0.21 | 0.00 | 96 | 1010.3 |
| 20260504233503 | 50 | 284 | 0.0 | 2.6 | 0.00 | 0.21 | 0.00 | 97 | 1010.1 |
| 20260504233216 | 50 | 0 | 0.0 | 0.0 | 0.00 | 0.21 | 0.00 | 97 | 1010.1 |
| 20260504232503 | 50 | 0 | 0.0 | 0.0 | 0.00 | 0.21 | 0.00 | 96 | 1010.0 |
| 20260504232214 | 50 | 0 | 0.0 | 0.0 | 0.00 | 0.21 | 0.00 | 96 | 1009.9 |
| 20260504231503 | 50 | 284 | 0.0 | 1.7 | 0.00 | 0.21 | 0.00 | 96 | 1009.8 |
| 20260504231213 | 50 | 283 | 0.9 | 5.2 | 0.00 | 0.21 | 0.00 | 96 | 1009.8 |
| 20260504230503 | 50 | 283 | 1.7 | 5.2 | 0.00 | 0.21 | 0.00 | 96 | 1009.8 |
| 20260504230004 | 51 | 281 | 1.7 | 2.6 | 0.00 | 0.21 | 0.00 | 96 | 1009.6 |
| 20260504225503 | 51 | 245 | 0.9 | 2.6 | 0.00 | 0.21 | 0.00 | 96 | 1009.6 |
| 20260504225003 | 51 | 202 | 0.9 | 2.6 | 0.00 | 0.21 | 0.00 | 96 | 1009.5 |
| 20260504224503 | 51 | 202 | 0.9 | 2.6 | 0.00 | 0.21 | 0.00 | 96 | 1009.5 |
| 20260504224003 | 52 | 202 | 0.0 | 0.9 | 0.00 | 0.21 | 0.00 | 96 | 1009.5 |
| 20260504223503 | 52 | 202 | 0.0 | 0.9 | 0.00 | 0.21 | 0.00 | 96 | 1009.6 |
| 20260504223004 | 52 | 251 | 0.0 | 1.7 | 0.00 | 0.21 | 0.00 | 96 | 1009.6 |
| 20260504222504 | 52 | 284 | 0.9 | 1.7 | 0.00 | 0.22 | 0.00 | 96 | 1009.6 |
| 20260504222003 | 52 | 309 | 0.9 | 2.6 | 0.00 | 0.22 | 0.00 | 96 | 1009.6 |
| 20260504221503 | 52 | 320 | 0.9 | 2.6 | 0.00 | 0.22 | 0.00 | 96 | 1009.5 |
| 20260504221003 | 52 | 305 | 1.7 | 5.2 | 0.00 | 0.22 | 0.00 | 96 | 1009.6 |
| 20260504220503 | 52 | 295 | 2.6 | 5.2 | 0.00 | 0.22 | 0.00 | 96 | 1009.6 |
| 20260504220006 | 52 | 305 | 1.7 | 4.3 | 0.01 | 0.22 | 0.00 | 95 | 1009.6 |
| 20260504215503 | 52 | 11 | 0.9 | 1.7 | 0.03 | 0.22 | 0.22 | 95 | 1009.7 |
| 20260504215004 | 52 | 358 | 0.9 | 3.5 | 0.06 | 0.22 | 0.22 | 95 | 1009.8 |
| 20260504214714 | 52 | 322 | 1.7 | 3.5 | 0.06 | 0.22 | 0.22 | 95 | 1009.8 |
| 20260504214003 | 53 | 285 | 2.6 | 5.2 | 0.06 | 0.23 | 0.22 | 95 | 1009.8 |
| 20260504213503 | 53 | 231 | 1.7 | 3.5 | 0.06 | 0.23 | 0.22 | 94 | 1009.8 |
| 20260504213004 | 53 | 161 | 0.9 | 3.5 | 0.06 | 0.23 | 0.22 | 94 | 1009.8 |
| 20260504212503 | 53 | 112 | 0.9 | 2.6 | 0.06 | 0.23 | 0.22 | 94 | 1010.0 |
| 20260504212003 | 53 | 49 | 1.7 | 5.2 | 0.06 | 0.23 | 0.22 | 93 | 1010.0 |
| 20260504211504 | 53 | 37 | 2.6 | 6.1 | 0.06 | 0.23 | 0.22 | 92 | 1010.2 |
| 20260504211003 | 54 | 26 | 2.6 | 6.1 | 0.06 | 0.23 | 0.22 | 92 | 1010.3 |
| 20260504210503 | 54 | 279 | 6.1 | 13.0 | 0.06 | 0.23 | 0.22 | 91 | 1010.4 |
| 20260504210005 | 54 | 270 | 8.7 | 15.6 | 0.06 | 0.22 | 0.21 | 90 | 1010.5 |
| 20260504205503 | 54 | 257 | 7.0 | 15.6 | 0.03 | 0.20 | 0.19 | 94 | 1010.5 |
| 20260504205214 | 54 | 248 | 5.2 | 15.6 | 0.01 | 0.17 | 0.17 | 97 | 1010.5 |
| 20260504204713 | 55 | 246 | 2.6 | 7.8 | 0.00 | 0.17 | 0.16 | 97 | 1010.6 |
| 20260504204003 | 55 | 283 | 0.0 | 1.7 | 0.00 | 0.17 | 0.16 | 97 | 1010.0 |
| 20260504203503 | 55 | 283 | 0.0 | 1.7 | 0.00 | 0.17 | 0.16 | 97 | 1009.9 |
| 20260504203004 | 55 | 283 | 0.0 | 1.7 | 0.00 | 0.17 | 0.16 | 97 | 1009.9 |
| 20260504202713 | 55 | 283 | 0.0 | 2.6 | 0.00 | 0.17 | 0.16 | 97 | 1009.8 |
| 20260504202214 | 55 | 283 | 0.9 | 2.6 | 0.00 | 0.17 | 0.16 | 97 | 1009.7 |
| 20260504201503 | 55 | 283 | 1.7 | 2.6 | 0.00 | 0.17 | 0.16 | 97 | 1009.6 |
| 20260504201003 | 55 | 283 | 0.9 | 2.6 | 0.00 | 0.17 | 0.16 | 96 | 1009.5 |
| 20260504200713 | 55 | 284 | 0.0 | 1.7 | 0.00 | 0.17 | 0.16 | 97 | 1009.5 |
| 20260504200214 | 55 | 284 | 0.0 | 1.7 | 0.00 | 0.17 | 0.16 | 97 | 1009.4 |
| 20260504195503 | 56 | 284 | 0.0 | 1.7 | 0.00 | 0.17 | 0.16 | 96 | 1009.4 |
| 20260504195003 | 56 | 284 | 0.0 | 0.9 | 0.00 | 0.17 | 0.16 | 96 | 1009.4 |
| 20260504194503 | 56 | 284 | 0.9 | 1.7 | 0.00 | 0.17 | 0.16 | 96 | 1009.4 |
| 20260504194003 | 56 | 284 | 0.0 | 1.7 | 0.00 | 0.17 | 0.16 | 96 | 1009.4 |
| 20260504193503 | 56 | 284 | 0.0 | 1.7 | 0.00 | 0.17 | 0.16 | 96 | 1009.3 |
| 20260504193214 | 56 | 284 | 0.0 | 1.7 | 0.00 | 0.17 | 0.16 | 96 | 1009.3 |
| 20260504192503 | 56 | 271 | 0.9 | 3.5 | 0.00 | 0.17 | 0.16 | 96 | 1009.3 |
| 20260504192003 | 56 | 262 | 1.7 | 3.5 | 0.00 | 0.17 | 0.16 | 96 | 1009.2 |
| 20260504191503 | 56 | 241 | 0.9 | 3.5 | 0.00 | 0.17 | 0.16 | 96 | 1009.1 |
| 20260504191003 | 56 | 214 | 0.0 | 0.9 | 0.00 | 0.17 | 0.16 | 95 | 1008.9 |
| 20260504190713 | 56 | 214 | 0.9 | 1.7 | 0.00 | 0.17 | 0.16 | 95 | 1008.9 |
| 20260504190005 | 56 | 207 | 0.9 | 2.6 | 0.00 | 0.17 | 0.16 | 95 | 1008.9 |
| 20260504185503 | 57 | 189 | 0.0 | 2.6 | 0.00 | 0.17 | 0.16 | 95 | 1008.9 |
| 20260504185004 | 57 | 163 | 0.0 | 1.7 | 0.00 | 0.17 | 0.16 | 95 | 1008.7 |
| 20260504184504 | 57 | 163 | 0.0 | 1.7 | 0.00 | 0.17 | 0.16 | 95 | 1008.6 |
| 20260504184003 | 57 | 163 | 0.0 | 1.7 | 0.00 | 0.17 | 0.16 | 95 | 1008.6 |
| 20260504183503 | 57 | 163 | 0.9 | 3.5 | 0.00 | 0.17 | 0.16 | 95 | 1008.5 |
| 20260504183004 | 57 | 150 | 0.9 | 3.5 | 0.00 | 0.17 | 0.16 | 94 | 1008.5 |
| 20260504182715 | 58 | 147 | 0.9 | 3.5 | 0.00 | 0.17 | 0.16 | 94 | 1008.6 |
| 20260504182003 | 58 | 118 | 0.0 | 0.9 | 0.00 | 0.17 | 0.16 | 94 | 1008.5 |
| 20260504181503 | 58 | 118 | 0.9 | 1.7 | 0.00 | 0.17 | 0.16 | 94 | 1008.5 |
| 20260504181003 | 58 | 116 | 1.7 | 3.5 | 0.00 | 0.17 | 0.16 | 94 | 1008.5 |
| 20260504180504 | 58 | 109 | 2.6 | 5.2 | 0.00 | 0.17 | 0.16 | 94 | 1008.5 |
| 20260504180004 | 58 | 105 | 2.6 | 5.2 | 0.00 | 0.17 | 0.16 | 94 | 1008.5 |
| 20260504175714 | 58 | 104 | 2.6 | 5.2 | 0.00 | 0.17 | 0.16 | 93 | 1008.5 |
| 20260504175003 | 58 | 115 | 1.7 | 3.5 | 0.00 | 0.17 | 0.16 | 93 | 1008.6 |
| 20260504174503 | 58 | 137 | 1.7 | 5.2 | 0.00 | 0.17 | 0.16 | 92 | 1008.8 |
| 20260504174003 | 58 | 146 | 2.6 | 5.2 | 0.00 | 0.17 | 0.16 | 92 | 1008.8 |
| 20260504173503 | 58 | 141 | 2.6 | 5.2 | 0.00 | 0.17 | 0.16 | 92 | 1008.8 |
| 20260504173004 | 58 | 136 | 1.7 | 4.3 | 0.00 | 0.17 | 0.16 | 92 | 1008.6 |
| 20260504172506 | 58 | 124 | 2.6 | 7.0 | 0.00 | 0.17 | 0.16 | 92 | 1008.6 |
| 20260504172004 | 58 | 129 | 2.6 | 7.0 | 0.00 | 0.17 | 0.16 | 92 | 1008.6 |
| 20260504171714 | 58 | 127 | 2.6 | 7.0 | 0.00 | 0.17 | 0.16 | 92 | 1008.6 |
| 20260504171004 | 58 | 120 | 3.5 | 7.0 | 0.00 | 0.17 | 0.16 | 93 | 1008.7 |
| 20260504170504 | 58 | 122 | 2.6 | 7.0 | 0.00 | 0.17 | 0.16 | 93 | 1008.9 |
| 20260504170215 | 58 | 115 | 2.6 | 7.0 | 0.00 | 0.17 | 0.16 | 93 | 1008.9 |
| 20260504150503 | 59 | 74 | 0.0 | 4.3 | 0.05 | 0.12 | 0.10 | 95 | 1009.3 |
| 20260504141003 | 60 | 107 | 1.7 | 3.5 | 0.04 | 0.07 | 0.06 | 94 | 1009.3 |
| 20260504140504 | 60 | 97 | 1.7 | 5.2 | 0.04 | 0.07 | 0.06 | 94 | 1009.1 |
| 20260504130504 | 62 | 99 | 7.0 | 12.2 | 0.01 | 0.03 | 0.02 | 85 | 1009.2 |
| 20260504110714 | 67 | 126 | 1.7 | 5.2 | 0.00 | 0.02 | 0.01 | 61 | 1010.2 |
| 20260504100503 | 66 | 281 | 4.3 | 10.4 | 0.00 | 0.02 | 0.01 | 64 | 1010.6 |
| 20260504082004 | 64 | 289 | 5.2 | 11.3 | 0.00 | 0.02 | 0.01 | 71 | 1010.3 |
| 20260504081503 | 63 | 266 | 6.1 | 11.3 | 0.00 | 0.02 | 0.01 | 72 | 1010.3 |
| 20260504081003 | 63 | 272 | 6.1 | 11.3 | 0.00 | 0.02 | 0.01 | 72 | 1010.4 |
| 20260504080713 | 62 | 275 | 7.0 | 11.3 | 0.00 | 0.02 | 0.01 | 72 | 1010.4 |
| 20260504060215 | 57 | 339 | 1.7 | 8.7 | 0.00 | 0.02 | 0.01 | 91 | 1010.9 |